Miscellaneous Local Product
Issued by NWS Hastings, NE

Home | Current Version | Previous Version | Graphics & Text | Print | Product List | Glossary On
Versions: 1 2 3 4 5 6 7 8 9 10 11 12 13 14 15 16 17 18 19 20 21 22 23 24 25 26 27 28 29 30 31 32 33 34 35 36 37 38 39 40 41 42 43 44 45 46 47 48 49 50
357
AXUS43 KGID 062302
MISGRI

GID CWA HOURLY WEATHER ROUNDUP
NATIONAL WEATHER SERVICE HASTINGS NE
500 PM CST TUE DEC 06 2016

NOTE: "FAIR" INDICATES FEW OR NO CLOUDS BELOW 12,000 FEET WITH NO
SIGNIFICANT WEATHER AND/OR OBSTRUCTIONS TO VISIBILITY.

...SOUTH CENTRAL NEBRASKA...

CITY           SKY/WX    TMP DP  RH WIND       PRES   REMARKS
GRAND ISLAND   CLEAR     29   7  39 NW8       30.04R WCI  21
HASTINGS       CLEAR     30   9  41 N7        30.04R WCI  23
KEARNEY        CLEAR     28   7  40 N8        30.02R WCI  20
ORD            CLEAR     27   2  34 NW12      30.01R WCI  17
YORK           CLEAR     28   9  43 NW9       30.05R WCI  20
AURORA         CLEAR     30   8  40 W8        30.05R WCI  22
LEXINGTON      CLEAR     31   6  34 W7        30.01R WCI  24
HOLDREGE       CLEAR     32   4  30 NW5       30.02R WCI  27
HEBRON         CLEAR     32  10  40 NW6       30.07R WCI  26

...NEBRASKA PANHANDLE...

CITY           SKY/WX    TMP DP  RH WIND       PRES   REMARKS
CHADRON        CLEAR     17   2  51 W14       29.99S WCI   3
ALLIANCE       CLOUDY    20   3  48 N13       29.93R WCI   7
SCOTTSBLUFF    CLOUDY    23   1  38 N8        29.94R WCI  14
SIDNEY         CLOUDY    25  -3  29 N5        29.92S WCI  19

...WESTERN AND NORTH CENTRAL NEBRASKA...

CITY           SKY/WX    TMP DP  RH WIND       PRES   REMARKS
VALENTINE      CLEAR     19   4  51 NW15      30.01R WCI   5
AINSWORTH      CLEAR     21   6  51 NW15G23   29.99R WCI   8
ONEILL         CLEAR     23   7  49 NW14G20   30.00S WCI  11
BROKEN BOW     CLEAR     28   6  39 N9        30.00R WCI  19
IMPERIAL       MOCLDY    28   1  31 CALM      29.97F
NORTH PLATTE   CLEAR     28   4  35 NW6       29.99R WCI  22
MCCOOK         CLEAR     31   2  29 W3        30.01S

...EASTERN NEBRASKA...

CITY           SKY/WX    TMP DP  RH WIND       PRES   REMARKS
NORFOLK        CLEAR     26   5  40 NW14G25   30.00R WCI  14
SO SIOUX CITY  CLEAR     27  11  51 NW18G24   29.98R WCI  14
TEKAMAH        CLEAR     29  14  53 W12       30.02R WCI  19
COLUMBUS       CLEAR     28   7  40 NW10      30.03R WCI  19
ALBION         CLEAR     28   2  34 NW14      30.02R WCI  16
OMAHA EPPLEY   CLEAR     32  10  40 W14       30.03R WCI  22
MILLARD        CLEAR     32  10  40 W12G17    30.03R WCI  23
LINCOLN        CLEAR     33   8  35 W9        30.07R WCI  25
NEBRASKA CITY  CLEAR     31   9  39 W8        30.05R WCI  23
BEATRICE       CLEAR     31  13  48 NW7       30.06R WCI  24
FALLS CITY     CLEAR     31  15  52 W8        30.06R WCI  23

...NORTHERN KANSAS...

CITY           SKY/WX    TMP DP  RH WIND       PRES   REMARKS
GOODLAND       CLEAR     27  -3  27 S6        29.96R WCI  20
HILL CITY      CLEAR     31   4  31 NW3       30.04S
NORTON         CLEAR     28  -2  26 W6        30.01F WCI  22
PHILLIPSBURG   CLEAR     34   7  32 NW5       30.05F WCI  30
SMITH CENTER   CLEAR     30   9  40 W5        30.06S WCI  25
BELOIT         CLEAR     34   9  35 NW3       30.07R
HAYS           MOCLDY    35   5  28 CALM      30.06S
RUSSELL        MOCLDY    34   9  35 N5        30.05R WCI  30
CONCORDIA      CLEAR     33  10  38 NW5       30.07R WCI  29
SALINA         CLOUDY    37  15  40 N5        30.10R WCI  33
TOPEKA         CLEAR     35  13  40 NW3       30.10R



USA.gov is the U.S. government's official web portal to all federal, state and local government web resources and services.